This is the latest recevied weather packets stored in our database for station/object K8DJB-1. If no packets are shown the sender has not sent any weather packets the latest 10 day(s).
| Time | Temp. | Humidity | Pressure | Rain* | Wind** | Luminosity | Snow |
|---|---|---|---|---|---|---|---|
| 1778032798 | 6.67° C | 69% | 1008.3 hPa | 0 mm | - | - | - |
| 1778032498 | 6.67° C | 68% | 1008.2 hPa | 0 mm | - | - | - |
| 1778032198 | 7.22° C | 68% | 1008.4 hPa | 0 mm | - | - | - |
| 1778031898 | 7.22° C | 68% | 1008.2 hPa | 0 mm | - | - | - |
| 1778031598 | 7.22° C | 67% | 1008 hPa | 0 mm | - | - | - |
| 1778031298 | 7.22° C | 67% | 1008 hPa | 0 mm | - | - | - |
| 1778030753 | 7.22° C | 66% | 1007.8 hPa | 0 mm | - | - | - |
| 1778030454 | 7.78° C | 66% | 1007.8 hPa | 0 mm | - | - | - |
| 1778030153 | 7.78° C | 63% | 1007.7 hPa | 0 mm | - | - | - |
| 1778029853 | 8.33° C | 63% | 1007.6 hPa | 0 mm | - | - | - |
| 1778029554 | 8.33° C | 62% | 1007.7 hPa | 0 mm | - | - | - |
| 1778029041 | 8.89° C | 60% | 1007.5 hPa | 0 mm | - | - | - |
| 1778028741 | 9.44° C | 60% | 1007.8 hPa | 0 mm | - | - | - |
| 1778028441 | 9.44° C | 60% | 1007.7 hPa | 0 mm | - | - | - |
| 1778028141 | 10° C | 61% | 1007.8 hPa | 0 mm | - | - | - |
| 1778027841 | 10° C | 59% | 1007.6 hPa | 0 mm | - | - | - |
| 1778027541 | 10° C | 54% | 1007.6 hPa | 0 mm | - | - | - |
| 1778027241 | 10° C | 51% | 1007.6 hPa | 0 mm | - | - | - |
| 1778026941 | 10° C | 51% | 1007.7 hPa | 0 mm | - | - | - |
| 1778026641 | 10° C | 52% | 1007.7 hPa | 0 mm | - | - | - |
| 1778026341 | 10° C | 51% | 1007.7 hPa | 0 mm | - | - | - |
| 1778026041 | 10.56° C | 50% | 1007.7 hPa | 0 mm | - | - | - |
| 1778025741 | 10.56° C | 51% | 1007.7 hPa | 0 mm | - | - | - |
| 1778025441 | 10.56° C | 50% | 1007.7 hPa | 0 mm | - | - | - |
| 1778025141 | 10.56° C | 49% | 1007.7 hPa | 0 mm | - | - | - |
* Rain latest hour (hover to see other rain measurements)
** Current wind speed in m/s (hover to see current wind gust speed)